[[{"header":{"parameterUnit":"m.s-1","parameterCategory":1,"la1":30.2991,"la2":30.254,"lo1":-89.0895,"lo2":-89.0444,"dy":0.0017,"dx":0.0017,"nx":28,"ny":28,"refTime":"2024-05-01T09:00:00:Z","depth":0,"parameterNumber":2,"parameterNumberName":"U-component_of_WINDS"},"data":[0,0,0,0,0,0,0,0,0,0,0,0,0,0,0,0,0,0,0,0,0,0,0,0,0,0,0,0,0,0,0,0,0,0,0,0,0,0,0,0,0,0,0,0,0,0,0,0,0,0,0,0,0,0,0,0,0,0,-1.1093,-1.1093,0,-1.1087,-1.1087,-1.1087,-1.1066,-1.1066,-1.1065,-1.1065,-1.1059,-1.106,-1.106,0,0,0,0,0,0,0,0,0,0,0,0,0,-1.1087,-1.1087,-1.1093,-1.1093,-1.1093,-1.1087,-1.1087,-1.1087,-1.1066,-1.1066,-1.1065,-1.1064,-1.1059,-1.106,-1.106,0,0,0,0,0,0,0,0,0,0,0,0,0,-1.1086,-1.1087,-1.1093,-1.1082,-1.1081,-1.1087,-1.1087,-1.1087,-1.1066,-1.1066,-1.1065,-1.1064,-1.1059,-1.106,-1.106,-1.1077,0,0,-1.1062,-1.1062,0,0,0,0,0,0,0,0,-1.1086,-1.1086,-1.1083,-1.1082,-1.1081,-1.1076,-1.1083,-1.1084,-1.1066,-1.1072,-1.1065,-1.1064,-1.1066,-1.1066,-1.1066,-1.1077,-1.1077,-1.1062,-1.1062,-1.1062,-1.1062,0,0,0,0,0,0,0,-1.1086,-1.1087,-1.109,-1.1083,-1.1082,-1.1077,-1.1076,-1.1083,-1.1073,-1.1071,-1.107,-1.1069,-1.1065,-1.1066,-1.1066,-1.1077,-1.1062,-1.1062,-1.1062,-1.1062,-1.1101,-1.1102,0,0,0,0,0,0,-1.1088,-1.1087,-1.1091,-1.109,-1.1082,-1.1078,-1.1077,-1.1079,-1.1073,-1.1071,-1.107,-1.1068,-1.1065,-1.1065,-1.1066,-1.1085,-1.1062,-1.1062,-1.1063,-1.1101,-1.1102,-1.1102,0,0,0,0,0,0,-1.1088,-1.1088,-1.1091,-1.1088,-1.1088,-1.1079,-1.1081,-1.1079,-1.108,-1.1072,-1.107,-1.1072,-1.1065,-1.1065,-1.1074,-1.1085,-1.1063,-1.1063,-1.11,-1.1101,-1.1102,-1.1125,0,0,0,0,0,0,-1.1088,-1.1089,-1.1095,-1.1088,-1.1088,-1.11,-1.1082,-1.1079,-1.108,-1.1078,-1.1073,-1.1072,-1.1064,-1.1074,-1.1075,-1.1085,-1.1063,-1.1099,-1.11,-1.1102,-1.1123,-1.1126,-1.1129,0,0,0,0,0,-1.1088,-1.1101,-1.1095,-1.1096,-1.1096,-1.11,-1.11,-1.1091,-1.1081,-1.1088,-1.1082,-1.1072,-1.1084,-1.1075,-1.1076,-1.1086,-1.1098,-1.11,-1.1101,-1.1121,-1.1126,-1.1129,0,0,0,0,0,0,-1.1109,-1.11,-1.1093,-1.1105,-1.1104,-1.1097,-1.1104,-1.1095,-1.1097,-1.1095,-1.1083,-1.1082,-1.1094,-1.1091,-1.1082,-1.1103,-1.1089,-1.1091,-1.1104,-1.1108,-1.1111,-1.1112,-1.1064,0,0,0,0,0,-1.1115,-1.112,-1.1112,-1.1123,-1.1123,-1.1114,-1.1115,-1.1108,-1.1106,-1.1105,-1.1101,-1.11,-1.1103,-1.1105,-1.1108,-1.1123,-1.1121,-1.113,-1.1133,-1.1136,-1.1138,-1.1146,-1.115,-1.1108,-1.1108,-1.1108,0,0,-1.1128,-1.1124,-1.1127,-1.1127,-1.1125,-1.113,-1.1113,-1.1119,-1.1123,-1.1106,-1.1115,-1.1112,-1.111,-1.1122,-1.1127,-1.112,-1.1149,-1.1138,-1.1141,-1.1141,-1.1148,-1.1152,-1.1156,-1.1109,-1.1109,-1.1109,0,0,-1.1154,-1.1151,-1.116,-1.1158,-1.1155,-1.1149,-1.1152,-1.1146,-1.1143,-1.1152,-1.114,-1.1144,-1.115,-1.1149,-1.1149,-1.1175,-1.1166,-1.1176,-1.1193,-1.1201,-1.1204,-1.1207,-1.1217,-1.122,-1.1178,-1.1178,-1.1178,0,-1.117,-1.1177,-1.1166,-1.1173,-1.1173,-1.1159,-1.1168,-1.1167,-1.1165,-1.1166,-1.1158,-1.1166,-1.1163,-1.1175,-1.1181,-1.1182,-1.1184,-1.1177,-1.1205,-1.1207,-1.121,-1.1219,-1.1222,-1.118,-1.1179,-1.1179,-1.1179,0,-1.1197,-1.1202,-1.121,-1.1208,-1.121,-1.1218,-1.1209,-1.1212,-1.1205,-1.12,-1.1209,-1.1205,-1.1207,-1.1209,-1.1202,-1.122,-1.1216,-1.1207,-1.1193,-1.1215,-1.1224,-1.1227,-1.1181,-1.1181,-1.1181,-1.118,0,0,-1.1236,-1.1229,-1.1232,-1.1231,-1.1227,-1.1231,-1.1238,-1.124,-1.1242,-1.1242,-1.1248,-1.1254,-1.1245,-1.1245,-1.1238,-1.1245,-1.1266,-1.1235,-1.1235,-1.1241,-1.1286,-1.1293,-1.1297,-1.126,-1.1261,-1.1261,-1.1286,0,-1.1261,-1.1273,-1.1264,-1.1278,-1.1283,-1.1269,-1.1276,-1.1274,-1.127,-1.1273,-1.1268,-1.1272,-1.126,-1.1261,-1.1267,-1.1262,-1.1275,-1.126,-1.1266,-1.1266,-1.1267,-1.1302,-1.1309,-1.1333,-1.1289,-1.129,-1.129,0,-1.1291,-1.1292,-1.1306,-1.1301,-1.1303,-1.1309,-1.131,-1.1313,-1.1311,-1.1308,-1.1308,-1.1299,-1.1307,-1.1293,-1.1304,-1.1294,-1.1296,-1.1294,-1.1295,-1.1295,-1.128,-1.1303,-1.1341,-1.1344,-1.1295,-1.1295,-1.1295,0,-1.1319,-1.1323,-1.1332,-1.1332,-1.1327,-1.1331,-1.1329,-1.1326,-1.1328,-1.1329,-1.133,-1.1332,-1.1333,-1.1334,-1.1326,-1.1317,-1.1338,-1.1324,-1.1336,-1.1336,-1.1341,-1.134,-1.1379,-1.1342,-1.1342,-1.1342,-1.1341,0,-1.1348,-1.1357,-1.1345,-1.1351,-1.1361,-1.135,-1.1361,-1.1357,-1.1355,-1.136,-1.1349,-1.1354,-1.1343,-1.1347,-1.1341,-1.1351,-1.1351,-1.1349,-1.1347,-1.135,-1.135,-1.1351,-1.1349,-1.1343,-1.1342,-1.1342,-1.1342,0,-1.138,-1.1372,-1.1381,-1.1375,-1.1374,-1.1382,-1.1377,-1.1382,-1.1377,-1.1383,-1.1384,-1.1377,-1.1381,-1.1373,-1.1376,-1.1372,-1.1386,-1.1382,-1.1387,-1.1385,-1.1398,-1.1397,-1.1439,-1.1444,-1.1403,-1.1403,-1.1403,0,-1.1399,-1.1406,-1.14,-1.1403,-1.1401,-1.1406,-1.1407,-1.1397,-1.1399,-1.1398,-1.1403,-1.1406,-1.1408,-1.1416,-1.1411,-1.1413,-1.1409,-1.1423,-1.1409,-1.1412,-1.1409,-1.1409,-1.141,-1.1426,-1.1427,-1.1427,-1.1428,0,-1.1434,-1.1429,-1.1432,-1.1433,-1.1435,-1.1436,-1.1435,-1.1438,-1.1427,-1.1431,-1.1435,-1.1436,-1.1439,-1.1443,-1.1444,-1.1443,-1.1434,-1.1432,-1.1435,-1.1438,-1.1441,-1.144,-1.1395,-1.1431,-1.1431,-1.1431,-1.143,-1.143,-1.146,-1.1466,-1.1463,-1.1466,-1.1465,-1.1465,-1.1469,-1.1465,-1.1468,-1.1469,-1.1463,-1.1469,-1.1467,-1.1468,-1.1467,-1.1472,-1.1465,-1.1469,-1.1471,-1.1472,-1.1474,-1.144,-1.1472,-1.1472,-1.1472,-1.1471,-1.1471,0,-1.1494,-1.1492,-1.1495,-1.1494,-1.1497,-1.1488,-1.1487,-1.149,-1.1495,-1.1494,-1.1496,-1.1501,-1.1504,-1.1499,-1.1502,-1.1507,-1.1503,-1.1508,-1.1507,-1.1507,-1.1479,-1.1477,-1.1511,-1.1511,-1.1511,-1.1511,-1.1511,-1.1511,-1.1512,-1.1521,-1.1517,-1.1525,-1.1523,-1.1528,-1.1528,-1.1528,-1.1527,-1.1533,-1.1536,-1.1532,-1.153,-1.1532,-1.1535,-1.1533,-1.1535,-1.1542,-1.1539,-1.1513,-1.1509,-1.1505,-1.1503,-1.1542,-1.1542,-1.1566,-1.1567,-1.1567]},{"header":{"parameterUnit":"m.s-1","parameterCategory":1,"la1":30.2991,"la2":30.254,"lo1":-89.0895,"lo2":-89.0444,"dy":0.0017,"dx":0.0017,"nx":28,"ny":28,"refTime":"2024-05-01T09:00:00:Z","depth":0,"parameterNumber":3,"parameterNumberName":"V-component_of_WINDS"},"data":[0,0,0,0,0,0,0,0,0,0,0,0,0,0,0,0,0,0,0,0,0,0,0,0,0,0,0,0,0,0,0,0,0,0,0,0,0,0,0,0,0,0,0,0,0,0,0,0,0,0,0,0,0,0,0,0,0,0,2.2517,2.2517,0,2.2497,2.2497,2.2496,2.2437,2.2436,2.2435,2.2433,2.2414,2.2415,2.2416,0,0,0,0,0,0,0,0,0,0,0,0,0,2.2507,2.2508,2.2517,2.2517,2.2517,2.2497,2.2497,2.2496,2.2437,2.2436,2.2434,2.2433,2.2414,2.2415,2.2416,0,0,0,0,0,0,0,0,0,0,0,0,0,2.2502,2.2508,2.2517,2.2485,2.2482,2.2497,2.2497,2.2496,2.2438,2.2436,2.2434,2.2432,2.2414,2.2415,2.2416,2.2461,0,0,2.2419,2.2419,0,0,0,0,0,0,0,0,2.2502,2.2502,2.249,2.2487,2.2484,2.2468,2.2486,2.2485,2.2438,2.2455,2.2433,2.2431,2.2434,2.2433,2.2433,2.246,2.2459,2.2419,2.242,2.242,2.242,0,0,0,0,0,0,0,2.2503,2.2503,2.2509,2.249,2.2486,2.2472,2.2469,2.2485,2.2455,2.2453,2.2449,2.2447,2.2432,2.2433,2.2433,2.2459,2.2419,2.242,2.2421,2.2421,2.2522,2.2524,0,0,0,0,0,0,2.2507,2.2503,2.251,2.2509,2.2488,2.2474,2.2471,2.2475,2.2455,2.245,2.2449,2.2444,2.2432,2.2431,2.2432,2.2483,2.242,2.2421,2.2422,2.252,2.2522,2.2525,0,0,0,0,0,0,2.2507,2.2508,2.2511,2.2505,2.2504,2.2476,2.2481,2.2475,2.2476,2.2452,2.2446,2.2455,2.243,2.243,2.2454,2.2482,2.2422,2.2423,2.2518,2.2521,2.2524,2.2587,0,0,0,0,0,0,2.2507,2.2509,2.2525,2.2506,2.2505,2.2533,2.2483,2.2476,2.2478,2.2472,2.2456,2.2452,2.2429,2.2453,2.2455,2.2482,2.2423,2.2515,2.2519,2.2523,2.2582,2.2592,2.26,0,0,0,0,0,2.2507,2.2544,2.2526,2.2528,2.2525,2.2535,2.2534,2.2507,2.248,2.2497,2.2481,2.2452,2.2478,2.2456,2.2458,2.2486,2.2513,2.2518,2.2522,2.2578,2.259,2.26,0,0,0,0,0,0,2.2569,2.2541,2.2521,2.2553,2.2547,2.2525,2.2545,2.252,2.2521,2.2516,2.2482,2.2479,2.2507,2.2499,2.2474,2.2528,2.2491,2.2496,2.2533,2.2544,2.2552,2.2554,2.2424,0,0,0,0,0,2.2586,2.2596,2.2572,2.2602,2.26,2.2573,2.2577,2.2556,2.2548,2.2545,2.2531,2.2526,2.2532,2.2538,2.2542,2.2581,2.2577,2.2601,2.261,2.2617,2.2622,2.2642,2.2652,2.254,2.254,2.254,0,0,2.2622,2.2608,2.2617,2.2614,2.2607,2.2619,2.2571,2.2586,2.2594,2.2548,2.2569,2.2559,2.255,2.2581,2.2594,2.2575,2.2652,2.2623,2.2629,2.263,2.2648,2.2658,2.2668,2.2543,2.2542,2.2542,0,0,2.2693,2.2683,2.2708,2.2701,2.269,2.2672,2.2678,2.266,2.2651,2.2672,2.2638,2.2648,2.266,2.2655,2.2655,2.2724,2.2698,2.2727,2.2773,2.2793,2.2802,2.2809,2.2834,2.2843,2.2732,2.2732,2.2732,0,2.2739,2.2754,2.2723,2.274,2.274,2.2698,2.2723,2.2718,2.271,2.2711,2.269,2.2704,2.2696,2.2725,2.2742,2.2743,2.2749,2.2728,2.2803,2.281,2.2817,2.284,2.2849,2.2736,2.2735,2.2735,2.2734,0,2.2811,2.2823,2.2844,2.2836,2.2839,2.286,2.2832,2.2839,2.2818,2.2802,2.2824,2.2812,2.2814,2.282,2.28,2.2847,2.2835,2.2809,2.277,2.2832,2.2853,2.2862,2.2741,2.2739,2.2738,2.2737,0,0,2.2921,2.2895,2.2904,2.29,2.2885,2.2893,2.2912,2.2913,2.292,2.2916,2.2931,2.2942,2.2918,2.2917,2.2896,2.2914,2.2969,2.2885,2.2884,2.2901,2.3021,2.304,2.3051,2.2952,2.2953,2.2955,2.3021,0,2.2988,2.3018,2.299,2.3026,2.3036,2.2997,2.3013,2.3006,2.2992,2.3,2.2984,2.2993,2.296,2.2959,2.2975,2.2959,2.2993,2.2954,2.2966,2.2967,2.2969,2.3062,2.3083,2.3147,2.3029,2.3031,2.3032,0,2.307,2.3069,2.3105,2.3088,2.3091,2.3106,2.3105,2.3112,2.3104,2.3093,2.3092,2.3066,2.3084,2.3047,2.3071,2.3046,2.3049,2.3042,2.3044,2.3044,2.3003,2.3065,2.3166,2.3176,2.3045,2.3044,2.3043,0,2.3146,2.3153,2.3176,2.3174,2.3154,2.3166,2.3159,2.3148,2.315,2.315,2.3151,2.3153,2.3154,2.3156,2.3132,2.3107,2.316,2.312,2.3151,2.3152,2.3164,2.3163,2.3267,2.3167,2.3166,2.3166,2.3166,0,2.3223,2.3247,2.321,2.3224,2.325,2.3218,2.3245,2.3233,2.3225,2.3236,2.3202,2.3214,2.3181,2.319,2.3171,2.3194,2.3195,2.3187,2.3181,2.319,2.3191,2.3191,2.3186,2.3169,2.3168,2.3168,2.3167,0,2.3312,2.3288,2.331,2.329,2.3285,2.3305,2.3288,2.33,2.3284,2.3299,2.3301,2.3276,2.3284,2.326,2.3265,2.3252,2.3286,2.3274,2.3289,2.3285,2.3317,2.3314,2.3425,2.3438,2.3329,2.333,2.3331,0,2.3363,2.338,2.3362,2.3367,2.3361,2.3369,2.3371,2.3342,2.3345,2.3337,2.3351,2.3356,2.3358,2.3374,2.3356,2.336,2.3347,2.3386,2.3348,2.3355,2.3348,2.3347,2.3349,2.3394,2.3395,2.3396,2.3397,0,2.3456,2.3443,2.3447,2.3447,2.3451,2.345,2.3446,2.3452,2.342,2.3427,2.3434,2.3436,2.3441,2.3446,2.3446,2.3439,2.3413,2.3409,2.3416,2.3425,2.3433,2.3429,2.331,2.3407,2.3406,2.3405,2.3404,2.3404,2.3528,2.3541,2.353,2.3536,2.353,2.3527,2.3538,2.3523,2.3528,2.3529,2.3511,2.3523,2.3514,2.3511,2.3507,2.3516,2.3498,2.3509,2.3511,2.3514,2.352,2.3432,2.3515,2.3515,2.3515,2.3515,2.3514,0,2.3619,2.361,2.3615,2.3611,2.3616,2.359,2.3585,2.3591,2.3601,2.3595,2.3598,2.3607,2.3612,2.3595,2.3599,2.3609,2.3597,2.3611,2.361,2.3609,2.3535,2.3529,2.362,2.362,2.362,2.362,2.362,2.362,2.3667,2.3688,2.3674,2.3693,2.3683,2.3694,2.3693,2.3691,2.3685,2.3697,2.3701,2.369,2.3679,2.3681,2.3686,2.3681,2.3683,2.3701,2.3692,2.3624,2.3614,2.3604,2.3597,2.3702,2.3702,2.3765,2.3765,2.3766]}]]